Back to catalog

STARLINK-34667

AliveCommunicationsVLEO
NORAD 64815·PAYLOAD·🇺🇸 United States

Launched Jul 16, 2025 from Vandenberg Space Force Base

Loading…

Next Passes (next 24 hours)

TLE

FreshSource: CelesTrak SupGP

Epoch: Sep 14, 2026, 14:53 UTC

1 64815C 25150AB  26257.62062500 -.00016739  00000+0 -14030-2 0  2574
2 64815  70.0027  18.0983 0003102 270.4166 194.0854 14.98334359    14

Track STARLINK-34667 in real time with AllMySat

Download on the App Store